Погода в Кирилловке

Россия / Пензенская область     53°20′38″N   42°41′45″E
темп.,
°C
ветер,
м/с
пор.,
м/с
влажн.,
%
обл.,
%
осадки,
мм/ч
давл.,
гПа
погр.,
м
18 мая, вт
вт1800:00+17юв41359100 0.0 1013190
03:00+16вюв412585 0.0 1013172
06:00+16вюв5146438 0.0 1012232
09:00+22вюв613585 0.0 1011485
12:00+26вюв610491 0.0 1011680
15:00+27вюв812520 0.0 10101002
18:00+24вюв715570 0.0 1009456
21:00+20в616630 0.0 1009300
19 мая, ср
ср1900:00+18юв5146319 0.0 1009351
03:00+16вюв466560 0.0 100990
06:00+16вюв477785 0.1 1010174
09:00+21юв4762100 0.1 1009505
12:00+24юв6952100 0.0 1009988
15:00+26юв6125799 0.0 10081673
18:00+24вюв6126241 0.0 1007417
21:00+18вюв2282100 1.4 100835
20 мая, чт
чт2000:00+17ююв338799 0.4 100757
03:00+15ю4891100 1.9 1009276
06:00+14ююз3789100 0.2 1009390
09:00+16ююв467465 0.4 1010925
12:00+18ююв6870100 0.1 10101520
15:00+18ююв6866100 0.2 10101306
18:00+17ю4777100 0.3 1010784
21:00+14ю368898 0.3 1010105
21 мая, пт
пт2100:00+12ю36952 0.0 1010129
03:00+11юз410966 0.0 1011276
06:00+12юз51090100 0.0 1012448
09:00+15юз797532 0.0 1013892
12:00+17зюз71066100 0.1 10151458
15:00+18зюз5968100 0.1 10161304
18:00+18з2573100 0.0 1016738
21:00+15юв2281100 0.1 101814
22 мая, сб
сб2200:00+14вюв3489100 0.5 101788
03:00+14вюв4696100 2.9 1017141
06:00+14вюв6139192 0.9 1016360
09:00+20ююв7157097 0.9 1014961
12:00+23ю71056100 0.0 10131425
15:00+24юз485995 0.0 10141850
18:00+24ююз2268100 0.0 101350
21:00+17ссз4792100 0.2 1015149